Regional Weather Roundup
Issued by NWS Northern Indiana

Home | Current Version | Previous Version | Text Only | Print | Product List | Glossary Off
Versions: 1 2 3 4 5 6 7 8 9 10 11 12 13 14 15 16 17 18 19 20 21 22 23 24 25 26 27 28 29 30 31 32 33 34 35 36 37 38 39 40 41 42 43 44 45 46 47 48 49 50

000
ASUS43 KIWX 280510
RWRIWX

KIWX WEATHER ROUNDUP
NATIONAL WEATHER SERVICE NORTHERN INDIANA
1200 AM EST SUN DEC 28 2014

NOTE: "FAIR" INDICATES FEW OR NO CLOUDS BELOW 12,000 FEET WITH NO
SIGNIFICANT WEATHER AND/OR OBSTRUCTIONS TO VISIBILITY.

* THESE STATIONS ARE NOT UNDER NWS QUALITY CONTROL. THEY ALSO MAY NOT
  REPORT WEATHER SUCH AS PRECIPITATION OR FOG.

INZ001>027-280600-
NORTHERN INDIANA

CITY           SKY/WX    TMP DP  RH WIND       PRES   REMARKS
GARY*          CLOUDY    35  24  63 W12       30.11F WCI  27
VALPARAISO     CLOUDY    33  26  75 NW6       30.09F WCI  28
MICHIGAN CITY* CLOUDY    34  25  69 NW8       30.09F WCI  27
LAPORTE*       CLOUDY    36  29  78 NW5       30.08F
KNOX*          CLOUDY    33  26  76 W7        30.09F WCI  27
SOUTH BEND     CLOUDY    35  29  78 W9        30.08S WCI  28
GOSHEN         CLOUDY    35  29  78 W13       30.05F WCI  26
MONTICELLO*    CLOUDY    32  29  89 NW10      30.10S WCI  24
LOGANSPORT*    CLOUDY    32  28  86 NW6       30.11R WCI  26
ROCHESTER*     CLOUDY    36  32  87 W5        30.09S
WARSAW*        CLOUDY    34  30  86 NW12G18   30.06F WCI  25
ANGOLA*        CLOUDY    34  30  86 NW9       30.04R WCI  26
FORT WAYNE     LGT SNOW  33  32  96 W8        30.06F FOG     WCI  26
HUNTINGTON*    CLOUDY    32  29  88 W6        30.07S WCI  27
PERU/GRISSOM   CLOUDY    33  33  99 NW13      30.08S WCI  24
MARION*        CLOUDY    32  32  99 W12       30.09F FOG     WCI  23

$$
INZ028>050-280600-
CENTRAL INDIANA

CITY           SKY/WX    TMP DP  RH WIND       PRES   REMARKS
LAFAYETTE      CLOUDY    32  28  85 NW14      30.13R WCI  22
KOKOMO*        CLOUDY    34  28  80 NW9       30.09F WCI  26
MUNCIE*        LGT RAIN  34  32  92 NW9       30.08S WCI  27
INDIANAPOLIS   LGT RAIN  33  32  96 NW8       30.10S WCI  26

$$
MIZ043>046-050>051-056>058-064>065-071>073-077>080-280600-
SOUTHWEST LOWER MICHIGAN

CITY           SKY/WX    TMP DP  RH WIND       PRES   REMARKS
BATTLE CREEK   CLOUDY    36  29  75 W10G20    30.04R
BENTON HARBOR  CLOUDY    35  28  75 NW12G18   30.07S WCI  27
COLDWATER*     CLOUDY    34  31  88 W8        30.04R WCI  27
HILLSDALE*     CLOUDY    35  33  90 NW14      30.01S WCI  26
HOLLAND        CLOUDY    38  31  76 W8G18     30.04S
GRAND RAPIDS   FLURRIES  35  32  88 W10       30.02R WCI  27
KALAMAZOO      CLOUDY    36  29  75 W9        30.04R
STURGIS*       CLOUDY    34  30  86 W7G17     30.05R WCI  28
THREE RIVERS*  CLOUDY    35  30  83 W10       30.06R WCI  27

$$
OHZ001>008-015>018-024>025-280600-
NORTHWEST OHIO

CITY           SKY/WX    TMP DP  RH WIND       PRES   REMARKS
WAUSEON*       CLOUDY    36  36 100 W10       30.03R
DEFIANCE       CLOUDY    35  33  92 SW6       30.04F WCI  30
FINDLAY        LGT RAIN  39  36  89 W12       30.02F
TOLEDO EXPRESS CLOUDY    35  33  92 W12       30.02S WCI  27
TOLEDO METCALF LGT RAIN  37  33  85 W15       30.03S
LIMA           RAIN      39  36  89 W14       30.04S FOG

$$
AND FOR LAKE MICHIGAN COASTAL AND OPEN LAKE BUOY OBSERVATIONS

STATION/POSITION TEMP    WIND        PRES    VSBY  WAVE
                 AIR SEA DIR/SP/G                  HT/PER
                 (F)     (DEG/KT/KT) (MB)    (MI)  (FT/S)
CALUMET HARBOR    33                   N/A
MICHIGAN CITY     35     270/ 16/ 20   N/A
SAINT JOSEPH      37     290/ 10/ 17 1019.3S

$$
&&


USA.gov is the U.S. government's official web portal to all federal, state and local government web resources and services.